Location: Budapest
(47.4979°N, 19.0402°E)
Time: 02:34:20
(UTC+01:00)

OTV 5 (USA 277) - Pass Details

Date: 14 October 2017
Orbit: 404 x 417 km, 43.0° (Epoch: 07 September)

Event Time Altitude Azimuth Distance (km) Brightness Sun altitude
Rises 19:22:37 0° 249° (WSW) 2,352 ? -15.1°
Reaches altitude 10° 19:24:50 10° 240° (WSW) 1,490 ? -15.5°
Maximum altitude 19:27:56 35° 173° (S) 687 ? -16.0°
Enters shadow 19:28:45 30° 141° (SE) 768 ? -16.1°
